{"data":{"norad_id":58009,"epoch":"2026-09-19T17:21:29.382336Z","epoch_age_seconds":204685,"freshness":"STALE","line1":"1 58009U 23153U   26262.72325674  .00004018  00000+0  15534-3 0  9993","line2":"2 58009  43.0002  51.0449 0000952  26.8697 333.2204 15.27606118164476","mean_motion":15.27606118,"eccentricity":9.52e-5,"inclination_deg":43.0002,"raan_deg":51.0449,"arg_perigee_deg":26.8697,"mean_anomaly_deg":333.2204,"bstar":0.00015534,"rev_number":16447,"period_min":94.265137003071,"perigee_km":482.31771299485,"apogee_km":483.6240679372,"semimajor_km":6861.107890466,"source":"CELESTRAK","updated_at":"2026-09-21T09:00:33.756514Z"}}